Regional Weather Roundup
Issued by NWS Green Bay, WI

Home | Current Version | Previous Version | Text Only | Print | Product List | Glossary On
Versions: 1 2 3 4 5 6 7 8 9 10 11 12 13 14 15 16 17 18 19 20 21 22 23 24 25 26 27 28 29 30 31 32 33 34 35 36 37 38 39 40 41 42 43 44 45 46 47 48 49 50
000
ASUS43 KGRB 020911
RWRGRB

NORTH-CENTRAL AND NORTHEAST WISCONSIN REGIONAL WEATHER ROUNDUP
NATIONAL WEATHER SERVICE GREEN BAY WI
400 AM CDT MON MAY 02 2016

WIZ005-009-010>012-018-019-021000-
NORTH CENTRAL WISCONSIN

CITY           SKY/WX    TMP DP  RH WIND       PRES   REMARKS
IRONWOOD         N/A     28  27  93 CALM      30.11R
MANITOWISH WTR CLEAR     30  30 100 CALM      30.11F
ARBOR VITAE    CLEAR     32  30  92 CALM      30.12S
EAGLE RIVER    FOG       30  30 100 CALM      30.11S VSB 1
LAND O LAKES   CLEAR     29  28  97 CALM      30.13R
RHINELANDER    CLEAR     30  26  85 CALM      30.12S
PHILLIPS       CLEAR     32  31  97 CALM      30.11S
ANTIGO         CLEAR     32  31  95 CALM      30.11S
TOMAHAWK       CLEAR     29  28  95 CALM      30.13S
MERRILL        CLEAR     32  31  98 CALM      30.13S
$$

WIZ013-073-021000-
NORTHEAST WISCONSIN

CITY           SKY/WX    TMP DP  RH WIND       PRES   REMARKS
IRON MOUNTAIN  PTCLDY    29  24  82 N5        30.10R
MARINETTE      CLEAR     37  30  75 CALM      30.09F
OCONTO         CLEAR     34  34 100 CALM      30.10S
$$

WIZ017-030-035>037-045-021000-
CENTRAL WISCONSIN

CITY           SKY/WX    TMP DP  RH WIND       PRES   REMARKS
MEDFORD        CLEAR     35  33  94 CALM      30.12R
WAUSAU         CLEAR     39  34  82 N3        30.11R
MOSINEE        CLEAR     39  34  81 N6        30.13S
MARSHFIELD     CLEAR     37  31  78 NW6       30.10F
WISC RAPIDS    PTCLDY    35  31  85 CALM      30.12S
STEVENS POINT  PTCLDY    31  30  94 N5        30.11F
WAUPACA        CLEAR     38  34  85 CALM      30.12S
SHAWANO        CLEAR     42  33  70 N3        30.11S
CLINTONVILLE   CLEAR     39  32  75 CALM      30.11S
WAUTOMA        CLEAR     32  30  92 CALM      30.11F
$$

WIZ038-039-048-051-021000-
FOX VALLEY

CITY           SKY/WX    TMP DP  RH WIND       PRES   REMARKS
NWS GREEN BAY  CLEAR     39  33  79 N6        30.10S
APPLETON       CLEAR     37  32  81 N6        30.09R
OSHKOSH        PTCLDY    42  36  79 NW5       30.10R
FOND DU LAC    CLEAR     40  37  89 NW5       30.09R
$$

WIZ022-050-052-021000-
EAST CENTRAL WISCONSIN

CITY           SKY/WX    TMP DP  RH WIND       PRES   REMARKS
EPHRAIM        FAIR      40  34  80 N9        30.08S
STURGEON BAY   CLEAR     39  34  81 N7        30.11S
MANITOWOC      CLEAR     40  34  79 CALM      30.09S
SHEBOYGAN      CLEAR     40  34  79 N6        30.09R
$$

LMZ563-521-522-541>543-021000-
LAKESHORE

STATION/POSITION TIME  TEMP    WIND        PRES    VSBY  WAVE
                       AIR SEA DIR/SP/G                  HT/PER
                 (UTC) (F)     (DEG/KT/KT) (MB)    (MI)  (FT/S)
SHEBOYGAN LKSHOR 0900   44     350/ 12/ 14 1019.6R
KEWAUNEE LKSHORE 0800   40     310/  4/  5 1018.0F
NORTHPORT PIER   0800   41     310/  7/  9 1019.0S
N MID LAKE BUOY  0850   40 38  300/  6/  6 1018.6R         1
CHAMBERS ISLAND  0800   42     330/  5/  7 1019.3S
MENOMINEE LKSHOR 0800   44     330/  7/  8 1017.9F
$$




USA.gov is the U.S. government's official web portal to all federal, state and local government web resources and services.